Location: Newark
(60.0000°N, 100.0000°E)
Time: 03:07:13
(UTC+00:00)

N. Korean satellite - Pass Details

Date: 20 November 2019
Orbit: 456 x 506 km, 97.2° (Epoch: 07 December)

Event Time Altitude Azimuth Distance (km) Brightness Sun altitude
Rises 10:05:07 0° 166° (SSE) 2,578 10.4 -9.7°
Reaches altitude 10° 10:07:11 10° 168° (SSE) 1,706 9.5 -10.0°
Maximum altitude 10:10:52 78° 255° (WSW) 522 6.8 -10.4°
Drops below altitude 10° 10:14:37 10° 343° (NNW) 1,734 9.3 -10.8°
Sets 10:16:43 0° 344° (NNW) 2,626 10.2 -11.1°
